SCP
0 0 0 0 0 0 0 0 0 0 0 0 0 0 0 0 0 0 0 0 0 0 0 0 0 0 0 0 0 0 0 0 0 0 0 0 0 0 0 0 0 0 0
0 0 0 0 0 0 0 0 0 0 0 0 0 0 0 0 0 0 0 0 0 0 0 0 0 0 0 0 0 0 0 0 0 0 0 0 0 0 0 0 0 0 0
0 0 0 0 0 0 0 0 0 0 0 0 0 0 0 0 0 0 0 0 0 0 0 0 0 0 0 0 0 0 0 0 0 0 0 0 0 0 0 0 0 0 0
0 0 0 0 0 0 0 0 0 0 0 0 0 0 0 0 0 0 0 0 0 0 0 0 0 0 0 0 0 0 0 0 0 0 0 0 0 0 0 0 0 0 0
0 0 0 0 0 0 0 0 0 0 0 0 0 0 0 0 0 0 0 0 0 0 0 0 0 0 0 0 0 0 0 0 0 0 0 0 0 0 0 0 0 0 0
0 0 0 0 0 0 0 0 0 0 0 0 0 0 0 0 0 0 0 0 0 0 0 0 0 0 0 0 0 0 0 0 0 0 0 0 0 0 0 0 0 0 0
0 0 0 0 0 0 0 0 0 0 0 0 0 0 0 0 0 0 0 0 0 0 0 0 0 0 0 0 0 0 0 0 0 0 0 0 0 0 0 0 0 0 0
0 0 0 0 0 0 0 0 0 0 0 0 0 0 0 0 0 0 0 0 0 0 0 0 0 0 0 0 0 0 0 0 0 0 0 0 0 0 0 0 0 0 0
0 0 0 0 0 0 0 0 0 0 0 0 0 0 0 0 0 0 0 0 0 0 0 0 0 0 0 0 0 0 0 0 0 0 0 0 0 0 0 0 0 0 0
0 0 0 0 0 0 0 0 0 0 0 0 0 0 0 0 0 0 0 0 0 0 0 0 0 0 0 0 0 0 0 0 0 0 0 0 0 0 0 0 0 0 0
0 0 0 0 0 0 0 0 0 0 0 0 0 0 0 0 0 0 0 0 0 0 0 0 0 0 0 0 0 0 0 0 0 0 0 0 0 0 0 0 0 0 0
0 0 0 0 0 0 0 0 0 0 0 0 0 0 0 0 0 0 0 0 0 0 0 0 0 0 0 0 0 0 0 0 0 0 0 0 0 0 0 0 0 0 0
0 0 0 0 0 0 0 0 0 0 0 0 0 0 0 0 0 0 0 0 0 0 0 0 0 0 0 0 0 0 0 0 0 0 0 0 0 0 0 0 0 0 0
0 0 0 0 0 0 0 0 0 0 0 0 0 0 0 0 0 0 0 0 0 0 0 0 0 0 0 0 0 0 0 0 0 0 0 0 0 0 0 0 0 0 0
0 0 0 0 0 0 0 0 0 0 0 0 0 0 0 0 0 0 0 0 0 0 0 0 0 0 0 0 0 0 0 0 0 0 0 0 0 0 0 0 0 0 0
0 0 0 0 0 0 0 0 0 0 0 0 0 0 0 0 0 0 0 0 0 0 0 0 0 0 0 0 0 0 0 0 0 0 0 0 0 0 0 0 0 0 0
0 0 0 0 0 0 0 0 0 0 0 0 0 0 0 0 0 0 0 0 0 0 0 0 0 0 0 0 0 0 0 0 0 0 0 0 0 0 0 0 0 0 0
0 0 0 0 0 0 0 0 0 0 0 0 0 0 0 0 0 0 0 0 0 0 0 0 0 0 0 0 0 0 0 0 0 0 0 0 0 0 0 0 0 0 0
0 0 0 0 0 0 0 0 0 0 0 0 0 0 0 0 0 0 0 0 0 0 0 0 0 0 0 0 0 0 0 0 0 0 0 0 0 0 0 0 0 0 0
0 0 0 0 0 0 0 0 0 0 0 0 0 0 0 0 0 0 0 0 0 0 0 0 0 0 0 0 0 0 0 0 0 0 0 0 0 0 0 0 0 0 0
0 0 0 0 0 0 0 0 0 0 0 0 0 0 0 0 0 0 0 0 0 0 0 0 0 0 0 0 0 0 0 0 0 0 0 0 0 0 0 0 0 0 0
0 0 0 0 0 0 0 0 0 0 0 0 0 0 0 0 0 0 0 0 0 0 0 0 0 0 0 0 0 0 0 0 0 0 0 0 0 0 0 0 0 0 0
0 0 0 0 0 0 0 0 0 0 0 0 0 0 0 0 0 0 0 0 0 0 0 0 0 0 0 0 0 0 0 0 0 0 0 0 0 0 0 0 0 0 0
0 0 0 0 0 0 0 0 0 0 0 0 0 0 0 0 0 0 0 0 0 0 0 0 0 0 0 0 0 0 0 0 0 0 0 0 0 0 0 0 0 0 0
0 0 0 0 0 0 0 0 0 0 0 0 0 0 0 0 0 0 0 0 0 0 0 0 0 0 0 0 0 0 0 0 0 0 0 0 0 0 0 0 0 0 0
0 0 0 0 0 0 0 0 0 0 0 0 0 0 0 0 0 0 0 0 0 0 0 0 0 0 0 0 0 0 0 0 0 0 0 0 0 0 0 0 0 0 0
Wind_Speed
0 0 0 1 1 1 1 1 1 1 1 1 1 1 1 1 2 2 2 5 5 5 4 4 3 3 3 4 4 4 4 4 4 4 5 5 5 5 5 5 6 6 5
1 1 1 1 1 1 1 1 1 1 1 1 1 1 1 1 2 2 2 3 5 5 5 5 4 4 4 4 4 4 3 3 3 3 4 5 5 5 6 6 6 6 6
1 1 1 1 1 1 1 1 1 1 1 1 1 1 1 1 2 2 2 2 2 3 4 5 5 5 5 4 4 4 3 3 3 3 4 4 5 5 5 5 6 6 6
2 1 1 1 1 1 1 1 1 1 1 0 0 0 0 1 1 1 1 1 1 2 2 4 4 5 5 5 5 5 5 4 3 3 3 4 5 5 5 5 6 6 6
1 1 1 1 1 1 1 1 1 1 1 0 0 0 1 1 1 1 1 1 1 1 1 2 3 4 5 5 5 5 5 5 4 3 3 4 5 6 6 6 6 7 7
1 1 1 2 2 1 1 1 1 1 1 0 0 0 0 1 1 1 1 1 1 1 1 1 1 2 4 5 6 6 6 6 5 4 4 4 5 6 7 7 7 7 8
0 1 1 2 2 2 1 1 2 1 0 0 1 1 1 1 1 1 1 1 1 0 0 0 0 0 1 4 6 7 7 6 5 5 5 5 6 7 8 8 8 8 8
1 1 1 1 2 2 1 1 1 1 1 1 1 0 1 1 1 1 1 1 1 0 0 0 1 1 0 1 3 6 7 8 7 6 6 6 7 8 8 8 8 9 9
1 1 2 1 2 2 2 2 2 2 2 1 1 2 1 2 1 0 1 1 1 1 1 1 1 1 0 0 1 4 6 7 8 7 7 7 8 9 9 9 10 10 10
2 2 2 2 2 2 2 3 2 2 2 2 1 0 1 1 1 1 1 0 1 1 1 1 1 1 1 1 1 3 5 6 7 8 9 9 9 10 10 10 10 11 11
2 2 2 2 2 2 2 2 2 2 2 2 2 1 1 1 1 2 2 2 1 1 1 2 2 1 1 1 1 2 5 6 7 8 9 9 10 10 11 11 12 12 12
2 2 2 2 2 2 2 3 3 3 3 2 2 1 2 1 2 2 3 3 2 2 2 2 2 1 1 1 2 4 5 7 8 8 9 10 10 11 11 12 12 12 12
2 2 2 2 2 2 2 2 2 3 3 3 3 2 2 2 1 1 2 2 3 2 2 2 2 1 1 1 2 3 5 7 8 9 10 10 11 11 12 12 12 12 13
2 2 2 2 2 2 2 2 2 2 2 3 3 3 2 2 2 2 2 2 2 3 2 3 1 2 1 2 2 3 3 7 9 10 10 11 12 12 12 12 13 13 13
2 2 2 2 2 2 2 2 2 2 2 2 2 2 2 2 2 2 2 2 3 3 4 3 2 2 2 1 3 2 3 7 9 10 11 12 12 12 12 13 13 14 14
2 2 2 2 2 2 2 2 2 2 2 2 2 2 3 2 2 2 2 2 3 3 4 3 2 1 1 2 3 2 3 7 9 10 12 12 13 13 13 13 14 14 15
2 3 2 2 2 2 2 2 2 3 3 3 2 3 3 2 2 2 2 2 2 2 5 5 2 2 2 2 2 2 3 3 5 10 12 13 13 13 13 14 14 14 15
3 2 2 2 2 2 2 3 3 3 3 3 3 3 3 2 2 2 2 2 2 2 4 6 4 2 3 2 3 4 4 4 4 9 12 12 13 13 14 14 14 14 14
3 3 3 3 3 2 2 2 3 3 3 3 3 3 3 3 3 2 2 2 2 2 3 4 5 3 2 2 3 4 4 4 5 7 9 11 12 14 14 14 14 14 14
3 3 3 3 2 2 2 2 2 3 2 2 2 3 3 4 4 3 3 3 2 3 3 4 4 4 3 2 2 3 4 4 5 5 7 8 10 13 14 14 14 14 15
3 3 3 2 2 2 2 2 3 3 3 3 2 3 3 3 3 3 3 3 3 3 3 3 4 4 3 3 3 3 5 5 5 3 4 5 5 5 7 11 12 14 15
2 2 3 3 3 2 3 4 3 3 3 3 3 3 3 3 3 5 5 4 4 4 4 4 4 5 5 4 3 4 4 5 5 2 4 7 4 6 5 5 10 14 15
2 3 3 3 3 3 4 4 4 3 3 3 3 2 2 2 2 3 4 4 5 5 6 5 6 6 6 5 4 5 5 6 7 5 4 7 4 6 5 6 13 14 14
3 3 3 3 3 3 4 4 5 3 3 3 3 3 3 2 2 2 2 3 4 4 5 5 6 6 6 5 5 5 6 6 7 5 3 6 4 5 5 5 11 13 14
3 3 3 3 3 3 4 5 4 2 3 3 3 2 3 3 4 3 2 3 4 4 5 6 8 8 9 9 6 3 3 4 6 5 2 4 4 5 6 5 7 11 13
3 2 2 2 3 3 4 4 4 2 3 2 2 2 3 4 4 4 3 4 5 5 3 4 5 7 6 6 7 5 4 4 4 5 2 2 3 4 6 4 4 5 7
Wind_Direction
150 131 155 146 149 131 136 123 105 78 68 51 42 45 55 53 58 66 71 63 57 47 29 25 32 31 32 32 29 25 21 16 16 16 8 3 357 349 342 340 340 336 332
162 166 193 158 150 140 135 128 123 92 68 69 47 34 58 64 62 61 81 70 55 44 23 15 16 17 15 14 8 9 6 358 356 358 358 352 348 348 344 344 344 341 338
165 183 188 160 152 138 124 115 105 92 83 78 66 58 55 61 70 60 57 69 67 45 23 12 11 10 8 3 358 359 358 352 344 360 360 347 338 342 345 345 339 335 337
175 175 173 160 148 132 128 125 116 111 118 122 125 184 129 108 98 85 67 62 71 64 20 13 8 360 358 358 355 357 352 339 331 344 349 347 336 333 335 337 337 332 324
143 170 162 151 141 134 141 150 128 143 155 163 231 200 151 128 124 100 97 68 62 78 73 11 10 2 356 352 348 344 339 333 332 334 338 336 327 323 324 325 323 324 323
141 170 159 149 138 132 144 146 145 141 162 174 318 308 166 154 135 135 129 96 60 51 65 45 24 357 355 349 348 338 327 322 325 326 324 322 320 317 314 314 314 313 314
142 145 171 150 144 151 165 166 155 139 158 94 27 317 295 195 172 167 149 130 109 79 100 88 86 64 350 341 338 336 336 328 326 325 323 318 315 310 307 308 308 309 311
171 162 164 162 155 150 149 168 163 161 202 165 165 192 314 327 276 183 144 143 157 171 190 204 139 109 45 4 339 339 341 334 328 324 320 317 314 312 312 311 308 306 306
176 164 177 176 171 165 178 186 180 182 205 219 155 159 176 232 308 282 180 152 161 186 234 252 186 178 210 196 296 322 329 334 327 322 319 316 312 312 312 310 308 305 303
192 182 188 188 184 177 188 196 188 183 180 201 220 205 175 169 163 291 298 215 189 212 226 250 230 209 215 220 287 316 318 317 320 319 315 312 311 310 309 307 306 304 303
201 193 187 193 194 191 194 193 189 182 182 189 187 188 230 261 178 203 261 280 278 254 235 232 226 213 208 222 237 290 306 304 308 311 313 310 307 307 305 304 304 304 303
202 200 193 197 200 197 195 199 194 188 190 188 191 179 172 179 204 204 235 257 262 257 247 232 223 220 213 225 262 300 297 297 301 304 307 308 305 303 303 302 301 302 302
206 208 204 208 206 203 197 196 197 197 190 189 201 210 207 218 211 200 218 252 264 266 245 237 223 206 229 218 248 304 297 299 302 303 304 303 302 300 300 301 301 301 301
206 195 203 209 213 205 197 192 195 200 188 194 208 208 211 230 225 223 210 224 269 276 258 248 235 211 220 219 269 300 283 294 295 298 300 300 299 300 298 298 298 298 299
197 189 197 203 208 206 197 192 193 193 187 193 202 205 217 227 222 232 218 201 215 259 273 249 234 239 230 232 285 261 270 289 293 295 298 298 297 297 297 296 296 295 295
196 189 192 195 197 199 192 186 182 181 185 204 204 210 226 232 231 230 222 221 221 229 260 265 251 266 260 284 298 277 269 296 287 291 294 293 294 295 295 294 295 294 295
193 197 196 191 193 201 197 192 196 190 197 210 211 214 230 228 232 238 228 226 234 227 252 275 279 282 268 273 293 282 274 273 281 287 290 290 293 293 293 293 293 294 295
193 194 194 195 198 202 201 194 200 204 208 212 213 212 230 229 233 238 237 235 239 238 243 267 278 279 270 270 276 278 287 284 279 284 287 290 291 292 293 293 293 294 296
189 189 190 197 202 204 203 202 203 211 214 218 213 213 225 219 230 235 236 241 246 255 248 260 273 275 272 282 287 285 283 277 284 286 286 289 291 293 293 294 294 295 295
188 191 195 201 203 202 209 206 206 209 216 225 221 219 223 221 226 228 234 238 243 252 256 259 269 276 276 275 279 288 298 292 292 292 286 291 291 292 291 293 293 293 292
195 185 184 193 197 205 214 206 213 212 214 226 229 227 226 224 234 234 236 236 235 241 253 257 266 277 276 288 283 284 291 301 289 273 293 290 288 282 284 286 288 289 291
194 184 192 194 201 219 219 214 214 218 221 224 236 241 238 228 240 245 251 253 239 231 237 243 256 264 271 276 285 288 291 301 292 277 290 285 272 274 276 272 285 290 291
195 200 204 203 212 223 215 218 221 222 224 227 234 242 253 251 229 231 253 262 258 252 243 243 251 258 268 268 274 277 275 276 274 281 291 279 268 271 277 282 288 289 292
211 214 216 213 218 229 218 220 224 227 232 235 235 230 238 250 254 250 252 262 262 257 258 252 251 259 262 262 252 260 269 275 276 268 267 271 277 279 287 280 285 288 294
217 220 217 216 223 234 224 222 216 230 237 243 241 233 233 236 252 255 249 260 274 279 280 273 275 277 279 280 278 271 267 273 278 274 246 260 284 298 288 273 275 284 291
218 216 228 224 226 236 230 221 211 225 238 248 249 243 241 244 253 250 240 246 263 273 283 290 284 285 282 279 278 254 247 254 270 276 244 258 278 308 298 277 274 281 284